Tracking 25648 objects as of 17-May-2022
HD Live streaming from Space Station
objects crossing your sky now

COSMOS 2251 DEB

Track COSMOS 2251 DEB now!
10-day predictions


NORAD ID: 37484
Int'l Code: 1993-036BLM
Perigee: 758.9 km
Apogee: 823.4 km
Inclination: 73.8 °
Period: 100.5 minutes
Semi major axis: 7162 km
RCS: 0.0078 m2 (small)
Launch date: June 16, 1993
Source: Commonwealth of Independent States (former USSR) (CIS)
Launch site: PLESETSK MISSILE AND SPACE COMPLEX (PKMTR)

Note: This is SATELLITE DEBRIS
aabbcc
Your satellite tracking list
Your tracking list is empty




NASA's NSSDC Master Catalog

Two Line Element Set (TLE):
1 37484U 93036BLM 22136.30926019  .00001675  00000-0  62357-3 0  9996
2 37484  73.8274 118.8087 0045051  36.0507  30.0490 14.32307498466225
Source of the keplerian elements: AFSPC